Retour au catalogue

STARLINK-2494

ActifCommunicationsVLEO
NORAD 48487·PAYLOAD·🇺🇸 United States

Lancé May 9, 2021 depuis Cape Canaveral Space Force Station

Loading…

Prochains Passages (prochaines 24 heures)

TLE

FraisSource: CelesTrak SupGP

Époque: Sep 15, 2026, 01:01 UTC

1 48487C 21040BM  26258.04284722 -.00031471  00000+0 -10119-2 0  2589
2 48487  53.1606  32.8310 0001127  83.8826 228.0590 15.31722388    14

Suivez STARLINK-2494 en temps réel avec AllMySat

Download on the App Store